Погода в Подгоренском

Россия / Воронежская область     50°24′07″N   39°38′20″E
темп.,
°C
ветер,
м/с
пор.,
м/с
влажн.,
%
обл.,
%
осадки,
мм/ч
давл.,
гПа
погр.,
м
26 февраля, пт
пт2600:00+2з61298100 0.3 1020280
03:00+2зсз51199100 0.7 1019278
06:00+2зсз61399100 0.0 1019305
09:00+2з51199100 0.0 1018226
12:00+3з612100100 0.0 1018344
15:00+3з81498100 0.0 1016440
18:00+3з71497100 0.1 1014474
21:00+3з61397100 0.2 1014365
27 февраля, сб
сб2700:00+3з61396100 0.1 1012387
03:00+2з51195100 0.1 1012382
06:00+1з51195100 0.0 1010411
09:00+1з51094100 0.0 1010449
12:00+2з61093100 0.0 1009605
15:00+3зсз71085100 0.2 1009909
18:00+1з5119396 0.1 1008512
21:00+1зсз6109798 0.1 1009522
28 февраля, вс
вс2800:00+1сз51096100 0.1 1010592
03:00−1с6987100 0.3 1012543
06:00−5ссз587646 0.0 1014635
09:00−5ссз587353 0.0 1016626
12:00−4ссз586664 0.0 1017674
15:00−3ссз576240 0.0 1018748
18:00−4ссз587048 0.0 1018693
21:00−4ссз578073 0.0 1021726
1 марта, пн
пн100:00−5с4677100 0.1 1021734
03:00−5ссз367899 0.1 1022671
06:00−6ссз248997 0.1 1024345
09:00−5с358199 0.2 1025647
12:00−4с4570100 0.0 1027780
15:00−3ссз4568100 0.1 1027759
18:00−4с3572100 0.0 1028663
21:00−5с127953 0.0 1029163
2 марта, вт
вт200:00−5зсз23840 0.0 1030120
03:00−6з368626 0.0 1029220
06:00−5зюз4984100 0.0 1027338
09:00−3зюз61078100 0.0 1026448
12:000зюз71177100 0.0 1024650
15:000з71292100 0.1 1021678
18:000з71497100 0.1 1019572
21:00+1зсз61297100 0.4 1018515